GALAXY 13 (HORIZONS-1)

Last updated on Sun Apr 12 2026 00:02:51 GMT+0000 (Coordinated Universal Time)

1 27954U 03044A 26101.45530931 .00000135 00000+0 00000+0 0 9995 2 27954 1.2469 84.6698 0002177 296.1895 192.7062 1.00272389 45906
UTC large
Height (km)
Speed (km/s)
/
Latitude / Longitude
Inclination (degrees)
Orbital Period (minutes)
Azimuth
Elevation
Range (km)
Doppler Factor

Next 0 passes for location: London (51.5072 / 0.1276)

Sorry there are no passes over London.
GALAXY 13 (HORIZONS-1)